Terminal Aerodrome Forecast
Issued by NWS Sterling, VA

Current Version | Previous Version | Graphics & Text | Print | Product List | Glossary On
Versions: 1 2 3 4 5 6 7 8 9 10 11 12 13 14 15 16
466
FTUS41 KLWX 100901 AAA
TAFMRB
TAF AMD
KMRB 100901Z 1009/1106 29012G18KT P6SM BKN050
     FM101300 28014G25KT P6SM SCT200
     FM102100 26010G17KT P6SM SCT090
     FM110000 25006KT P6SM SCT090=

USA.gov is the U.S. government's official web portal to all federal, state and local government web resources and services.